Wind_Speed
45 44 43 40 40 39 39 39 39 40 40 39 39 37 36 37 37 36 35 35 35 35 35 35 35 35 35 36 36 36 36 36 36 35 35 35 35 35 35 35 35 35 35 36
47 45 41 40 40 40 39 39 39 40 40 39 39 38 37 38 38 37 37 37 37 37 38 37 37 37 36 37 37 37 37 37 37 36 36 36 36 36 36 36 36 36 36 36
46 43 41 41 40 39 39 38 38 39 40 40 40 38 37 37 37 37 37 37 38 38 38 38 37 37 37 37 37 38 37 37 37 37 37 37 37 37 37 36 36 36 36 36
47 45 44 43 41 40 39 38 38 38 39 39 40 40 36 37 37 37 37 37 37 37 37 38 38 37 38 38 38 38 37 37 37 38 38 38 38 37 37 37 37 37 36 37
47 45 44 43 41 40 39 38 38 39 40 40 39 42 37 36 37 37 38 37 37 37 38 39 39 38 37 37 37 38 38 37 38 38 38 38 37 37 37 36 36 36 37 37
47 46 45 43 41 41 39 38 39 40 40 42 38 41 40 36 36 37 37 37 37 37 38 38 38 37 37 37 37 37 38 38 38 38 38 37 37 37 36 36 36 37 37 37
49 49 47 44 43 42 40 39 39 40 40 41 38 39 39 35 34 35 36 36 36 37 37 37 37 37 37 37 37 37 38 37 37 37 37 37 37 37 36 36 37 36 37 38
50 49 46 44 43 41 39 39 38 38 39 39 39 39 36 34 33 33 34 35 35 35 35 35 35 36 36 36 36 37 36 36 36 36 36 36 36 36 36 36 36 36 37 38
48 47 45 43 42 41 40 39 37 38 39 40 40 39 36 33 32 31 32 33 33 34 34 34 34 35 35 35 35 35 35 34 35 35 35 35 35 35 35 35 36 37 37 38
46 46 46 44 43 43 41 39 39 40 40 40 40 37 36 34 31 30 31 32 32 33 33 33 33 34 34 34 33 34 33 33 34 34 34 34 34 34 35 36 36 37 37 39
47 48 47 45 43 42 41 41 41 41 42 41 40 38 36 34 31 30 30 30 31 31 31 31 31 31 31 31 31 32 32 32 32 32 33 33 33 34 35 36 36 37 38 40
46 47 48 45 41 41 42 41 41 42 41 40 40 38 35 34 32 30 30 29 29 29 29 29 29 29 29 29 30 30 31 31 31 32 32 33 33 34 35 36 37 38 39 40
46 48 49 48 46 44 43 42 42 41 40 40 40 38 34 33 32 31 30 29 28 27 27 27 28 28 28 29 29 30 30 31 31 32 33 33 34 35 36 36 37 39 40 41
45 48 49 48 44 41 42 41 41 41 42 40 38 35 34 33 32 31 30 28 27 26 26 27 27 27 28 29 29 29 30 31 31 32 32 33 34 35 36 37 38 40 41 42
47 47 46 45 44 43 41 40 41 42 40 39 36 35 32 32 33 32 30 28 26 26 26 27 27 28 28 28 29 29 30 30 31 32 32 33 34 35 36 37 39 41 42 43
48 47 45 45 45 45 43 41 40 40 39 37 35 33 29 31 33 32 30 28 27 27 27 27 28 28 28 28 29 29 30 30 31 32 33 34 34 35 37 38 40 41 42 44
46 45 45 44 43 44 45 40 38 37 36 36 35 29 29 32 32 31 29 28 28 28 27 27 27 27 28 28 29 29 30 30 31 32 32 33 34 36 37 38 40 41 43 43
43 43 43 44 44 46 41 38 37 36 34 34 33 30 31 31 30 29 28 28 27 27 27 27 26 27 27 28 28 29 30 30 31 32 33 34 35 37 38 39 41 42 42 43
45 44 44 45 46 44 40 37 36 35 33 31 31 30 29 30 29 28 27 27 26 26 26 26 26 27 27 28 28 29 30 31 32 33 34 35 36 37 38 40 41 42 43 44
46 45 45 46 46 45 39 36 34 34 33 29 30 29 29 30 29 26 27 26 26 26 26 26 26 27 27 27 28 29 30 31 33 33 34 35 36 38 39 40 41 42 44 45
48 46 46 45 44 41 38 35 33 34 29 28 29 29 29 29 27 26 27 26 26 26 26 26 27 27 27 28 29 30 31 31 33 34 35 36 37 39 40 40 42 43 45 46
47 46 45 44 42 39 34 32 31 30 30 29 28 28 28 27 27 26 26 26 26 26 27 27 27 27 28 29 29 30 31 32 33 34 35 37 38 39 40 41 43 44 46 48
46 44 43 42 37 33 31 30 29 30 31 30 29 28 28 27 27 26 26 26 26 26 27 27 28 28 29 29 30 30 31 33 34 35 36 37 38 39 41 42 44 45 47 49
44 42 42 41 38 34 31 30 30 30 31 30 29 28 28 27 27 26 26 26 26 27 27 28 29 29 29 29 30 31 32 34 34 35 36 37 39 40 42 43 45 46 49 52
41 39 39 39 37 35 33 31 31 31 31 29 28 28 28 28 27 27 27 27 27 27 28 28 28 29 29 30 31 32 33 34 35 36 37 38 40 41 43 44 46 49 51 54
39 37 36 35 33 33 31 31 32 31 30 29 29 29 28 28 27 27 27 27 28 29 29 29 29 30 31 31 32 33 34 35 36 37 38 40 41 43 44 46 49 51 54 57
Wind_Direction
232 233 233 235 237 238 240 242 243 245 247 247 248 249 251 254 256 258 260 262 265 267 269 271 273 275 276 278 280 282 283 284 286 287 286 286 286 287 287 287 288 288 289 289
232 233 235 235 236 238 239 242 245 247 250 251 251 251 253 256 258 259 261 262 265 267 270 272 272 274 275 277 279 281 283 284 285 285 285 285 286 286 286 286 287 287 288 289
234 234 235 236 237 240 241 243 246 248 251 253 253 252 254 256 259 261 263 264 266 269 271 272 272 274 276 277 279 280 281 282 283 284 284 284 285 285 285 285 285 286 288 289
233 231 233 235 237 240 242 245 247 250 252 254 256 256 253 258 260 263 265 266 268 270 271 272 273 275 276 277 278 279 280 281 282 283 283 284 284 284 284 284 285 286 287 288
233 233 234 235 238 241 244 245 248 250 253 255 257 261 257 258 262 264 266 267 268 270 271 273 274 275 276 276 277 278 279 280 281 282 282 282 282 283 283 283 284 286 287 288
232 232 234 235 236 239 242 245 247 250 253 255 257 262 262 261 264 266 267 268 269 270 272 273 275 275 276 276 277 278 279 280 281 281 281 281 281 282 283 283 284 286 287 289
230 232 233 234 235 238 240 243 247 251 254 258 259 261 264 265 266 267 268 269 270 271 272 273 274 275 276 276 277 278 279 280 280 280 280 280 281 282 283 283 284 285 287 289
233 233 235 236 237 240 242 244 247 252 256 260 260 261 263 265 266 267 268 270 270 271 273 274 275 275 276 276 277 278 278 278 279 279 280 280 281 282 282 283 284 285 287 289
233 235 235 236 237 238 241 243 246 250 253 257 261 265 265 265 267 268 269 269 271 272 273 274 275 276 276 276 277 277 278 278 278 278 279 280 281 282 282 283 284 286 287 288
233 235 236 235 235 237 239 241 242 246 251 255 259 262 267 267 267 268 270 271 271 272 273 274 275 275 276 276 277 277 277 278 278 278 279 280 281 281 282 284 285 287 288 289
228 233 235 235 234 236 238 240 242 246 250 254 259 263 266 270 271 271 271 272 272 273 273 274 275 276 276 277 277 278 278 278 279 279 280 280 281 282 283 285 286 287 289 290
226 230 233 235 235 235 238 240 243 245 250 254 258 260 264 269 272 274 274 274 274 275 275 276 275 276 277 277 278 278 279 279 279 279 280 281 282 283 284 286 288 289 290 291
224 227 230 232 232 232 235 237 241 245 249 252 255 261 263 266 270 272 274 275 275 275 275 275 274 275 276 277 278 279 280 280 280 281 281 282 283 284 285 287 289 290 291 292
224 228 230 234 236 237 237 239 241 244 246 251 255 260 264 268 269 271 273 275 275 275 273 273 274 276 277 278 279 279 280 280 281 282 283 284 284 285 286 288 290 291 292 293
222 225 226 230 234 237 237 238 240 243 247 251 255 258 261 266 269 271 273 275 275 275 274 274 276 277 278 279 279 280 281 282 282 283 284 285 285 286 288 289 290 292 293 294
220 223 223 226 230 235 237 236 237 241 245 250 253 256 259 261 266 270 273 274 274 274 275 276 277 278 278 279 281 282 283 283 284 285 286 287 287 288 290 291 292 293 294 295
218 221 223 226 229 234 236 237 239 242 246 251 254 256 255 258 263 268 271 273 274 274 275 276 278 279 279 280 282 283 284 285 286 286 287 288 289 290 291 293 294 295 295 296
217 220 224 227 229 233 235 237 241 244 246 250 254 253 255 258 261 265 268 271 273 273 275 276 278 279 280 280 282 283 285 286 287 287 288 290 291 292 293 294 295 296 297 297
215 218 223 227 231 234 234 236 240 245 247 249 252 253 254 257 260 264 267 269 271 272 274 275 276 279 280 282 283 284 286 287 288 289 290 291 292 293 294 296 297 297 298 299
214 217 221 227 231 234 236 238 241 245 248 249 251 252 255 258 260 263 266 268 270 272 273 275 277 279 282 284 285 286 287 289 290 291 292 292 293 294 296 297 298 298 299 300
219 220 223 227 232 236 237 239 241 245 249 250 251 253 256 259 261 262 265 267 269 270 272 275 277 280 282 284 286 288 289 290 291 292 293 294 295 296 297 298 299 299 300 301
223 225 226 229 232 235 239 242 243 247 248 250 252 254 257 259 260 263 265 267 269 270 272 274 277 280 283 285 287 289 290 291 292 293 294 295 296 297 298 299 300 301 302 302
222 226 230 232 235 239 240 242 243 244 247 250 252 255 257 260 261 262 264 266 268 271 272 274 277 281 284 286 288 290 291 293 294 295 296 297 298 299 300 301 302 302 303 304
221 224 228 230 232 237 240 242 244 246 247 249 251 254 255 258 260 261 263 266 268 270 273 276 279 282 284 287 289 291 292 294 295 296 297 298 299 301 302 303 304 304 305 305
219 222 226 229 232 236 240 242 244 246 247 249 251 254 256 257 259 261 264 266 268 270 274 277 279 282 285 287 289 291 293 294 296 297 298 299 301 302 303 304 305 306 307 307
218 221 225 230 234 237 239 240 243 245 247 249 251 254 256 257 258 261 264 266 269 272 275 277 279 282 285 287 289 291 293 295 297 297 299 300 301 303 304 305 306 308 308 309
Height
5750 5756 5762 5768 5772 5776 5778 5782 5785 5787 5789 5793 5797 5801 5804 5804 5807 5809 5811 5812 5813 5813 5814 5815 5815 5815 5815 5814 5813 5813 5812 5810 5809 5808 5807 5805 5803 5802 5800 5798 5796 5794 5792 5790
5741 5748 5756 5759 5763 5767 5771 5774 5777 5780 5782 5785 5789 5793 5796 5797 5799 5802 5803 5804 5805 5806 5807 5807 5808 5808 5808 5807 5806 5805 5805 5803 5802 5801 5799 5798 5796 5794 5792 5790 5788 5786 5784 5782
5733 5744 5747 5750 5755 5759 5763 5767 5770 5773 5775 5777 5781 5785 5789 5790 5792 5794 5795 5797 5798 5799 5799 5799 5800 5800 5800 5799 5799 5798 5797 5796 5794 5793 5791 5790 5788 5786 5785 5783 5781 5779 5777 5775
5724 5732 5737 5742 5747 5751 5756 5760 5763 5765 5767 5770 5773 5776 5782 5783 5784 5786 5788 5789 5790 5791 5791 5791 5792 5792 5792 5792 5791 5790 5789 5788 5786 5785 5784 5782 5780 5779 5777 5775 5773 5771 5769 5767
5716 5723 5729 5734 5741 5745 5749 5753 5755 5757 5759 5762 5766 5766 5774 5776 5776 5778 5779 5781 5782 5783 5783 5783 5783 5784 5784 5783 5782 5781 5781 5780 5778 5777 5775 5774 5772 5770 5769 5767 5765 5763 5761 5759
5708 5714 5720 5727 5733 5737 5741 5745 5747 5749 5751 5754 5760 5759 5763 5768 5769 5770 5771 5772 5773 5774 5774 5774 5775 5775 5775 5775 5774 5773 5772 5771 5770 5768 5767 5765 5764 5762 5761 5759 5757 5755 5753 5751
5698 5704 5711 5718 5723 5728 5732 5737 5740 5741 5743 5747 5751 5751 5755 5759 5761 5762 5763 5764 5765 5765 5766 5766 5766 5766 5766 5766 5765 5764 5764 5763 5761 5760 5758 5757 5756 5754 5752 5751 5749 5747 5745 5742
5689 5696 5704 5710 5716 5721 5725 5729 5733 5736 5738 5739 5741 5744 5749 5751 5753 5754 5755 5755 5756 5757 5757 5758 5758 5758 5758 5757 5756 5756 5755 5754 5753 5751 5750 5749 5747 5746 5744 5742 5741 5739 5737 5734
5682 5690 5697 5702 5708 5713 5716 5720 5726 5728 5729 5731 5733 5736 5740 5743 5745 5746 5747 5747 5748 5749 5749 5749 5749 5749 5749 5749 5748 5747 5746 5745 5744 5743 5742 5740 5739 5737 5736 5734 5732 5730 5728 5725
5675 5681 5687 5693 5698 5703 5708 5713 5716 5718 5720 5722 5726 5729 5732 5734 5737 5738 5739 5739 5740 5741 5741 5741 5741 5741 5740 5740 5739 5739 5738 5737 5736 5735 5733 5732 5731 5729 5728 5726 5724 5722 5719 5716
5666 5672 5676 5682 5689 5696 5700 5704 5707 5711 5713 5716 5718 5724 5724 5726 5728 5730 5731 5732 5732 5733 5733 5733 5733 5732 5732 5731 5731 5730 5730 5729 5728 5726 5725 5724 5723 5721 5719 5717 5715 5713 5710 5707
5657 5662 5666 5674 5682 5686 5690 5695 5699 5703 5706 5709 5711 5717 5717 5719 5720 5722 5723 5724 5724 5725 5725 5725 5725 5724 5724 5724 5723 5722 5721 5720 5719 5718 5717 5716 5714 5712 5711 5709 5706 5704 5701 5698
5648 5652 5658 5663 5671 5676 5680 5686 5690 5695 5698 5700 5703 5709 5710 5712 5713 5714 5715 5716 5717 5717 5717 5717 5717 5717 5716 5716 5715 5714 5713 5712 5711 5710 5709 5707 5706 5704 5702 5700 5697 5695 5692 5689
5638 5643 5650 5656 5663 5670 5674 5678 5682 5686 5688 5692 5697 5701 5702 5703 5705 5707 5708 5708 5709 5710 5710 5709 5709 5709 5709 5708 5707 5706 5705 5704 5703 5702 5701 5699 5697 5695 5693 5691 5688 5686 5682 5679
5627 5633 5641 5649 5655 5659 5665 5670 5674 5677 5681 5686 5691 5693 5696 5696 5697 5698 5700 5701 5702 5702 5702 5702 5701 5701 5701 5700 5699 5698 5697 5696 5695 5694 5692 5690 5689 5686 5684 5682 5679 5676 5672 5669
5618 5626 5633 5640 5645 5650 5654 5660 5665 5669 5674 5678 5682 5686 5689 5689 5689 5690 5692 5693 5694 5694 5694 5694 5694 5693 5693 5692 5691 5690 5689 5688 5687 5685 5684 5682 5680 5677 5675 5672 5669 5666 5662 5658
5611 5619 5625 5631 5637 5640 5645 5653 5658 5663 5667 5671 5674 5680 5681 5681 5682 5683 5685 5685 5686 5686 5686 5686 5686 5685 5685 5684 5683 5682 5681 5680 5678 5677 5675 5673 5671 5668 5666 5663 5659 5656 5652 5648
5603 5610 5617 5623 5629 5630 5642 5648 5651 5655 5660 5664 5667 5670 5672 5674 5675 5676 5677 5678 5678 5678 5678 5678 5678 5678 5677 5676 5675 5674 5673 5672 5670 5668 5666 5664 5662 5659 5656 5653 5649 5646 5642 5638
5595 5602 5608 5614 5618 5625 5633 5640 5645 5648 5652 5657 5659 5662 5664 5665 5667 5669 5669 5670 5670 5671 5671 5671 5670 5670 5669 5668 5667 5666 5665 5664 5662 5660 5658 5655 5652 5649 5646 5643 5639 5635 5631 5627
5587 5594 5601 5606 5611 5617 5628 5634 5638 5641 5644 5650 5651 5654 5656 5657 5659 5662 5662 5662 5662 5663 5663 5663 5663 5662 5661 5661 5659 5658 5657 5655 5653 5651 5648 5646 5643 5640 5637 5633 5629 5625 5621 5616
5578 5585 5591 5598 5604 5611 5620 5626 5630 5635 5641 5643 5644 5646 5648 5650 5652 5654 5653 5654 5655 5655 5655 5655 5655 5654 5654 5653 5651 5650 5649 5647 5644 5642 5639 5637 5634 5630 5627 5623 5619 5614 5610 5605
5572 5579 5585 5591 5598 5608 5614 5619 5624 5629 5631 5634 5636 5638 5641 5642 5644 5645 5646 5646 5647 5647 5647 5647 5647 5646 5645 5644 5643 5642 5640 5638 5636 5633 5630 5627 5624 5620 5616 5613 5608 5603 5599 5593
5565 5575 5582 5589 5597 5603 5608 5613 5617 5620 5623 5626 5628 5631 5633 5635 5636 5637 5638 5639 5639 5639 5639 5639 5639 5638 5637 5636 5635 5633 5631 5629 5627 5624 5621 5617 5614 5610 5606 5602 5597 5592 5587 5581
5560 5568 5575 5581 5589 5595 5601 5605 5609 5612 5615 5618 5621 5623 5625 5627 5628 5629 5630 5631 5631 5632 5632 5632 5631 5630 5629 5628 5626 5625 5622 5620 5617 5615 5611 5608 5604 5600 5596 5591 5586 5581 5575 5569
5553 5561 5567 5574 5581 5587 5592 5598 5601 5604 5607 5610 5613 5615 5617 5619 5621 5622 5623 5623 5624 5624 5624 5623 5623 5622 5621 5619 5618 5616 5613 5611 5608 5605 5602 5598 5594 5590 5585 5580 5575 5569 5563 5555
5547 5555 5562 5569 5576 5581 5586 5590 5593 5596 5599 5602 5605 5607 5609 5611 5612 5614 5615 5615 5616 5616 5616 5615 5615 5614 5612 5611 5609 5606 5604 5602 5599 5595 5592 5588 5584 5579 5575 5569 5564 5556 5550 5542